Year,Month,Day,Hour,Minute,Value (Times are PST for temperature in C)
2010,04,22,00,00,8.10
2010,04,22,00,01,8.10
2010,04,22,00,02,8.00
2010,04,22,00,03,8.00
2010,04,22,00,04,8.00
2010,04,22,00,05,8.00
2010,04,22,00,06,8.00
2010,04,22,00,07,8.00
2010,04,22,00,08,8.00
2010,04,22,00,09,8.00
2010,04,22,00,10,7.90
2010,04,22,00,11,7.90
2010,04,22,00,12,7.90
2010,04,22,00,13,7.90
2010,04,22,00,14,7.90
2010,04,22,00,15,7.90
2010,04,22,00,16,8.00
2010,04,22,00,17,8.00
2010,04,22,00,18,8.00
2010,04,22,00,19,7.90
2010,04,22,00,20,7.90
2010,04,22,00,21,7.90
2010,04,22,00,22,7.90
2010,04,22,00,23,7.90
2010,04,22,00,24,7.90
2010,04,22,00,25,7.90
2010,04,22,00,26,7.90
2010,04,22,00,27,7.90
2010,04,22,00,28,7.90
2010,04,22,00,29,7.90
2010,04,22,00,30,7.90
2010,04,22,00,31,7.90
2010,04,22,00,32,7.90
2010,04,22,00,33,7.90
2010,04,22,00,34,7.90
2010,04,22,00,35,7.90
2010,04,22,00,36,7.90
2010,04,22,00,37,7.90
2010,04,22,00,38,7.90
2010,04,22,00,39,7.90
2010,04,22,00,40,7.90
2010,04,22,00,41,7.90
2010,04,22,00,42,7.90
2010,04,22,00,43,7.90
2010,04,22,00,44,7.90
2010,04,22,00,45,7.80
2010,04,22,00,46,7.80
2010,04,22,00,47,7.80
2010,04,22,00,48,7.90
2010,04,22,00,49,7.90
2010,04,22,00,50,7.90
2010,04,22,00,51,7.90
2010,04,22,00,52,7.90
2010,04,22,00,53,7.90
2010,04,22,00,54,7.90
2010,04,22,00,55,7.90
2010,04,22,00,56,7.90
2010,04,22,00,57,7.90
2010,04,22,00,58,7.90
2010,04,22,00,59,7.90
2010,04,22,01,00,7.90
2010,04,22,01,01,7.90
2010,04,22,01,02,7.90
2010,04,22,01,03,7.90
2010,04,22,01,04,7.90
2010,04,22,01,05,7.90
2010,04,22,01,06,7.90
2010,04,22,01,07,7.80
2010,04,22,01,08,7.80
2010,04,22,01,09,7.80
2010,04,22,01,10,7.80
2010,04,22,01,11,7.80
2010,04,22,01,12,7.80
2010,04,22,01,13,7.80
2010,04,22,01,14,7.80
2010,04,22,01,15,7.80
2010,04,22,01,16,7.80
2010,04,22,01,17,7.80
2010,04,22,01,18,7.80
2010,04,22,01,19,7.80
2010,04,22,01,20,7.80
2010,04,22,01,21,7.80
2010,04,22,01,22,7.80
2010,04,22,01,23,7.80
2010,04,22,01,24,7.80
2010,04,22,01,25,7.80
2010,04,22,01,26,7.80
2010,04,22,01,27,7.80
2010,04,22,01,28,7.80
2010,04,22,01,29,7.80
2010,04,22,01,30,7.80
2010,04,22,01,31,7.80
2010,04,22,01,32,7.80
2010,04,22,01,33,7.80
2010,04,22,01,34,7.80
2010,04,22,01,35,7.80
2010,04,22,01,36,7.80
2010,04,22,01,37,7.80
2010,04,22,01,38,7.80
2010,04,22,01,39,7.80
2010,04,22,01,40,7.80
2010,04,22,01,41,7.80
2010,04,22,01,42,7.80
2010,04,22,01,43,7.80
2010,04,22,01,44,7.80
2010,04,22,01,45,7.80
2010,04,22,01,46,7.70
2010,04,22,01,47,7.70
2010,04,22,01,48,7.70
2010,04,22,01,49,7.70
2010,04,22,01,50,7.70
2010,04,22,01,51,7.70
2010,04,22,01,52,7.70
2010,04,22,01,53,7.80
2010,04,22,01,54,7.80
2010,04,22,01,55,7.80
2010,04,22,01,56,7.80
2010,04,22,01,57,7.80
2010,04,22,01,58,7.80
2010,04,22,01,59,7.80
2010,04,22,02,00,7.80
2010,04,22,02,01,7.80
2010,04,22,02,02,7.80
2010,04,22,02,03,7.80
2010,04,22,02,04,7.80
2010,04,22,02,05,7.80
2010,04,22,02,06,7.80
2010,04,22,02,07,7.80
2010,04,22,02,08,7.70
2010,04,22,02,09,7.70
2010,04,22,02,10,7.70
2010,04,22,02,11,7.80
2010,04,22,02,12,7.80
2010,04,22,02,13,7.80
2010,04,22,02,14,7.80
2010,04,22,02,15,7.80
2010,04,22,02,16,7.70
2010,04,22,02,17,7.70
2010,04,22,02,18,7.70
2010,04,22,02,19,7.70
2010,04,22,02,20,7.70
2010,04,22,02,21,7.70
2010,04,22,02,22,7.70
2010,04,22,02,23,7.70
2010,04,22,02,24,7.70
2010,04,22,02,25,7.70
2010,04,22,02,26,7.70
2010,04,22,02,27,7.80
2010,04,22,02,28,7.80
2010,04,22,02,29,7.80
2010,04,22,02,30,7.80
2010,04,22,02,31,7.80
2010,04,22,02,32,7.80
2010,04,22,02,33,7.80
2010,04,22,02,34,7.80
2010,04,22,02,35,7.80
2010,04,22,02,36,7.80
2010,04,22,02,37,7.80
2010,04,22,02,38,7.80
2010,04,22,02,39,7.80
2010,04,22,02,40,7.80
2010,04,22,02,41,7.80
2010,04,22,02,42,7.80
2010,04,22,02,43,7.80
2010,04,22,02,44,7.80
2010,04,22,02,45,7.80
2010,04,22,02,46,7.80
2010,04,22,02,47,7.80
2010,04,22,02,48,7.80
2010,04,22,02,49,7.80
2010,04,22,02,50,7.80
2010,04,22,02,51,7.70
2010,04,22,02,52,7.70
2010,04,22,02,53,7.70
2010,04,22,02,54,7.70
2010,04,22,02,55,7.80
2010,04,22,02,56,7.80
2010,04,22,02,57,7.80
2010,04,22,02,58,7.80
2010,04,22,02,59,7.80
2010,04,22,03,00,7.80
2010,04,22,03,01,7.80
2010,04,22,03,02,7.80
2010,04,22,03,03,7.80
2010,04,22,03,04,7.80
2010,04,22,03,05,7.80
2010,04,22,03,06,7.80
2010,04,22,03,07,7.80
2010,04,22,03,08,7.80
2010,04,22,03,09,7.80
2010,04,22,03,10,7.90
2010,04,22,03,11,7.90
2010,04,22,03,12,7.90
2010,04,22,03,13,7.90
2010,04,22,03,14,7.90
2010,04,22,03,15,7.90
2010,04,22,03,16,7.90
2010,04,22,03,17,7.90
2010,04,22,03,18,7.90
2010,04,22,03,19,7.90
2010,04,22,03,20,7.80
2010,04,22,03,21,7.80
2010,04,22,03,22,7.80
2010,04,22,03,23,7.80
2010,04,22,03,24,7.80
2010,04,22,03,25,7.80
2010,04,22,03,26,7.80
2010,04,22,03,27,7.80
2010,04,22,03,28,7.80
2010,04,22,03,29,7.80
2010,04,22,03,30,7.80
2010,04,22,03,31,7.80
2010,04,22,03,32,7.80
2010,04,22,03,33,7.80
2010,04,22,03,34,7.80
2010,04,22,03,35,7.80
2010,04,22,03,36,7.80
2010,04,22,03,37,7.80
2010,04,22,03,38,7.80
2010,04,22,03,39,7.80
2010,04,22,03,40,7.80
2010,04,22,03,41,7.80
2010,04,22,03,42,7.80
2010,04,22,03,43,7.80
2010,04,22,03,44,7.80
2010,04,22,03,45,7.80
2010,04,22,03,46,7.80
2010,04,22,03,47,7.80
2010,04,22,03,48,7.80
2010,04,22,03,49,7.80
2010,04,22,03,50,7.80
2010,04,22,03,51,7.80
2010,04,22,03,52,7.80
2010,04,22,03,53,7.80
2010,04,22,03,54,7.80
2010,04,22,03,55,7.70
2010,04,22,03,56,7.70
2010,04,22,03,57,7.80
2010,04,22,03,58,7.70
2010,04,22,03,59,7.70
2010,04,22,04,00,7.70
2010,04,22,04,01,7.70
2010,04,22,04,02,7.70
2010,04,22,04,03,7.70
2010,04,22,04,04,7.70
2010,04,22,04,05,7.70
2010,04,22,04,06,7.70
2010,04,22,04,07,7.70
2010,04,22,04,08,7.70
2010,04,22,04,09,7.70
2010,04,22,04,10,7.70
2010,04,22,04,11,7.70
2010,04,22,04,12,7.70
2010,04,22,04,13,7.70
2010,04,22,04,14,7.70
2010,04,22,04,15,7.70
2010,04,22,04,16,7.70
2010,04,22,04,17,7.70
2010,04,22,04,18,7.70
2010,04,22,04,19,7.70
2010,04,22,04,20,7.70
2010,04,22,04,21,7.70
2010,04,22,04,22,7.70
2010,04,22,04,23,7.60
2010,04,22,04,24,7.60
2010,04,22,04,25,7.60
2010,04,22,04,26,7.60
2010,04,22,04,27,7.60
2010,04,22,04,28,7.50
2010,04,22,04,29,7.50
2010,04,22,04,30,7.50
2010,04,22,04,31,7.50
2010,04,22,04,32,7.50
2010,04,22,04,33,7.50
2010,04,22,04,34,7.50
2010,04,22,04,35,7.50
2010,04,22,04,36,7.50
2010,04,22,04,37,7.50
2010,04,22,04,38,7.40
2010,04,22,04,39,7.40
2010,04,22,04,40,7.40
2010,04,22,04,41,7.40
2010,04,22,04,42,7.40
2010,04,22,04,43,7.40
2010,04,22,04,44,7.40
2010,04,22,04,45,7.40
2010,04,22,04,46,7.40
2010,04,22,04,47,7.40
2010,04,22,04,48,7.40
2010,04,22,04,49,7.40
2010,04,22,04,50,7.40
2010,04,22,04,51,7.40
2010,04,22,04,52,7.40
2010,04,22,04,53,7.30
2010,04,22,04,54,7.30
2010,04,22,04,55,7.30
2010,04,22,04,56,7.30
2010,04,22,04,57,7.30
2010,04,22,04,58,7.20
2010,04,22,04,59,7.20
2010,04,22,05,00,7.20
2010,04,22,05,01,7.20
2010,04,22,05,02,7.10
2010,04,22,05,03,7.10
2010,04,22,05,04,7.10
2010,04,22,05,05,7.10
2010,04,22,05,06,7.10
2010,04,22,05,07,7.10
2010,04,22,05,08,7.10
2010,04,22,05,09,7.10
2010,04,22,05,10,7.10
2010,04,22,05,11,7.10
2010,04,22,05,12,7.10
2010,04,22,05,13,7.00
2010,04,22,05,14,7.00
2010,04,22,05,15,7.00
2010,04,22,05,16,7.00
2010,04,22,05,17,6.90
2010,04,22,05,18,6.90
2010,04,22,05,19,6.90
2010,04,22,05,20,6.90
2010,04,22,05,21,6.80
2010,04,22,05,22,6.80
2010,04,22,05,23,6.80
2010,04,22,05,24,6.80
2010,04,22,05,25,6.70
2010,04,22,05,26,6.70
2010,04,22,05,27,6.70
2010,04,22,05,28,6.60
2010,04,22,05,29,6.60
2010,04,22,05,30,6.60
2010,04,22,05,31,6.50
2010,04,22,05,32,6.50
2010,04,22,05,33,6.40
2010,04,22,05,34,6.40
2010,04,22,05,35,6.40
2010,04,22,05,36,6.30
2010,04,22,05,37,6.30
2010,04,22,05,38,6.30
2010,04,22,05,39,6.30
2010,04,22,05,40,6.30
2010,04,22,05,41,6.20
2010,04,22,05,42,6.20
2010,04,22,05,43,6.20
2010,04,22,05,44,6.20
2010,04,22,05,45,6.20
2010,04,22,05,46,6.20
2010,04,22,05,47,6.10
2010,04,22,05,48,6.10
2010,04,22,05,49,6.10
2010,04,22,05,50,6.10
2010,04,22,05,51,6.00
2010,04,22,05,52,6.00
2010,04,22,05,53,5.90
2010,04,22,05,54,5.90
2010,04,22,05,55,5.90
2010,04,22,05,56,5.80
2010,04,22,05,57,5.80
2010,04,22,05,58,5.80
2010,04,22,05,59,5.80
2010,04,22,06,00,5.80
2010,04,22,06,01,5.80
2010,04,22,06,02,5.70
2010,04,22,06,03,5.70
2010,04,22,06,04,5.70
2010,04,22,06,05,5.70
2010,04,22,06,06,5.70
2010,04,22,06,07,5.60
2010,04,22,06,08,5.60
2010,04,22,06,09,5.60
2010,04,22,06,10,5.60
2010,04,22,06,11,5.60
2010,04,22,06,12,5.60
2010,04,22,06,13,5.50
2010,04,22,06,14,5.50
2010,04,22,06,15,5.50
2010,04,22,06,16,5.50
2010,04,22,06,17,5.40
2010,04,22,06,18,5.40
2010,04,22,06,19,5.40
2010,04,22,06,20,5.40
2010,04,22,06,21,5.40
2010,04,22,06,22,5.40
2010,04,22,06,23,5.40
2010,04,22,06,24,5.30
2010,04,22,06,25,5.30
2010,04,22,06,26,5.30
2010,04,22,06,27,5.30
2010,04,22,06,28,5.30
2010,04,22,06,29,5.30
2010,04,22,06,30,5.30
2010,04,22,06,31,5.30
2010,04,22,06,32,5.30
2010,04,22,06,33,5.30
2010,04,22,06,34,5.30
2010,04,22,06,35,5.30
2010,04,22,06,36,5.30
2010,04,22,06,37,5.20
2010,04,22,06,38,5.20
2010,04,22,06,39,5.20
2010,04,22,06,40,5.10
2010,04,22,06,41,5.10
2010,04,22,06,42,5.10
2010,04,22,06,43,5.10
2010,04,22,06,44,5.10
2010,04,22,06,45,5.20
2010,04,22,06,46,5.20
2010,04,22,06,47,5.20
2010,04,22,06,48,5.20
2010,04,22,06,49,5.20
2010,04,22,06,50,5.20
2010,04,22,06,51,5.20
2010,04,22,06,52,5.20
2010,04,22,06,53,5.20
2010,04,22,06,54,5.20
2010,04,22,06,55,5.20
2010,04,22,06,56,5.20
2010,04,22,06,57,5.20
2010,04,22,06,58,5.20
2010,04,22,06,59,5.20
2010,04,22,07,00,5.30
2010,04,22,07,01,5.30
2010,04,22,07,02,5.30
2010,04,22,07,03,5.30
2010,04,22,07,04,5.40
2010,04,22,07,05,5.40
2010,04,22,07,06,5.40
2010,04,22,07,07,5.50
2010,04,22,07,08,5.60
2010,04,22,07,09,5.60
2010,04,22,07,10,5.70
2010,04,22,07,11,5.70
2010,04,22,07,12,5.80
2010,04,22,07,13,5.80
2010,04,22,07,14,5.90
2010,04,22,07,15,5.90
2010,04,22,07,16,6.00
2010,04,22,07,17,6.10
2010,04,22,07,18,6.10
2010,04,22,07,19,6.20
2010,04,22,07,20,6.20
2010,04,22,07,21,6.30
2010,04,22,07,22,6.40
2010,04,22,07,23,6.50
2010,04,22,07,24,6.60
2010,04,22,07,25,6.70
2010,04,22,07,26,6.70
2010,04,22,07,27,6.70
2010,04,22,07,28,6.80
2010,04,22,07,29,6.80
2010,04,22,07,30,6.90
2010,04,22,07,31,6.90
2010,04,22,07,32,7.00
2010,04,22,07,33,7.00
2010,04,22,07,34,7.10
2010,04,22,07,35,7.10
2010,04,22,07,36,7.20
2010,04,22,07,37,7.20
2010,04,22,07,38,7.20
2010,04,22,07,39,7.30
2010,04,22,07,40,7.30
2010,04,22,07,41,7.40
2010,04,22,07,42,7.40
2010,04,22,07,43,7.40
2010,04,22,07,44,7.40
2010,04,22,07,45,7.50
2010,04,22,07,46,7.50
2010,04,22,07,47,7.60
2010,04,22,07,48,7.60
2010,04,22,07,49,7.60
2010,04,22,07,50,7.60
2010,04,22,07,51,7.60
2010,04,22,07,52,7.70
2010,04,22,07,53,7.70
2010,04,22,07,54,7.70
2010,04,22,07,55,7.80
2010,04,22,07,56,7.80
2010,04,22,07,57,7.90
2010,04,22,07,58,7.90
2010,04,22,07,59,8.00
2010,04,22,08,00,8.10
2010,04,22,08,01,8.20
2010,04,22,08,02,8.30
2010,04,22,08,03,8.40
2010,04,22,08,04,8.50
2010,04,22,08,05,8.50
2010,04,22,08,06,8.60
2010,04,22,08,07,8.80
2010,04,22,08,08,8.90
2010,04,22,08,09,9.00
2010,04,22,08,10,9.10
2010,04,22,08,11,9.20
2010,04,22,08,12,9.20
2010,04,22,08,13,9.20
2010,04,22,08,14,9.20
2010,04,22,08,15,9.20
2010,04,22,08,16,9.30
2010,04,22,08,17,9.30
2010,04,22,08,18,9.30
2010,04,22,08,19,9.30
2010,04,22,08,20,9.40
2010,04,22,08,21,9.40
2010,04,22,08,22,9.40
2010,04,22,08,23,9.40
2010,04,22,08,24,9.40
2010,04,22,08,25,9.40
2010,04,22,08,26,9.40
2010,04,22,08,27,9.40
2010,04,22,08,28,9.40
2010,04,22,08,29,9.40
2010,04,22,08,30,9.40
2010,04,22,08,31,9.40
2010,04,22,08,32,9.40
2010,04,22,08,33,9.40
2010,04,22,08,34,9.40
2010,04,22,08,35,9.40
2010,04,22,08,36,9.50
2010,04,22,08,37,9.50
2010,04,22,08,38,9.60
2010,04,22,08,39,9.60
2010,04,22,08,40,9.60
2010,04,22,08,41,9.70
2010,04,22,08,42,9.80
2010,04,22,08,43,9.80
2010,04,22,08,44,9.90
2010,04,22,08,45,9.90
2010,04,22,08,46,10.00
2010,04,22,08,47,10.00
2010,04,22,08,48,10.10
2010,04,22,08,49,10.20
2010,04,22,08,50,10.20
2010,04,22,08,51,10.20
2010,04,22,08,52,10.20
2010,04,22,08,53,10.20
2010,04,22,08,54,10.30
2010,04,22,08,55,10.20
2010,04,22,08,56,10.30
2010,04,22,08,57,10.20
2010,04,22,08,58,10.20
2010,04,22,08,59,10.20
2010,04,22,09,00,10.20
2010,04,22,09,01,10.20
2010,04,22,09,02,10.20
2010,04,22,09,03,10.20
2010,04,22,09,04,10.20
2010,04,22,09,05,10.20
2010,04,22,09,06,10.20
2010,04,22,09,07,10.30
2010,04,22,09,08,10.30
2010,04,22,09,09,10.50
2010,04,22,09,10,10.50
2010,04,22,09,11,10.40
2010,04,22,09,12,10.40
2010,04,22,09,13,10.30
2010,04,22,09,14,10.20
2010,04,22,09,15,10.20
2010,04,22,09,16,10.20
2010,04,22,09,17,10.20
2010,04,22,09,18,10.20
2010,04,22,09,19,10.30
2010,04,22,09,20,10.30
2010,04,22,09,21,10.40
2010,04,22,09,22,10.40
2010,04,22,09,23,10.40
2010,04,22,09,24,10.40
2010,04,22,09,25,10.50
2010,04,22,09,26,10.60
2010,04,22,09,27,10.70
2010,04,22,09,28,10.80
2010,04,22,09,29,10.80
2010,04,22,09,30,10.80
2010,04,22,09,31,10.80
2010,04,22,09,32,10.90
2010,04,22,09,33,11.00
2010,04,22,09,34,11.00
2010,04,22,09,35,11.00
2010,04,22,09,36,11.00
2010,04,22,09,37,11.00
2010,04,22,09,38,11.10
2010,04,22,09,39,11.20
2010,04,22,09,40,11.10
2010,04,22,09,41,11.10
2010,04,22,09,42,11.20
2010,04,22,09,43,11.20
2010,04,22,09,44,11.20
2010,04,22,09,45,11.20
2010,04,22,09,46,11.30
2010,04,22,09,47,11.30
2010,04,22,09,48,11.50
2010,04,22,09,49,11.50
2010,04,22,09,50,11.60
2010,04,22,09,51,11.60
2010,04,22,09,52,11.60
2010,04,22,09,53,11.50
2010,04,22,09,54,11.40
2010,04,22,09,55,11.40
2010,04,22,09,56,11.40
2010,04,22,09,57,11.30
2010,04,22,09,58,11.20
2010,04,22,09,59,11.20
2010,04,22,10,00,11.20
2010,04,22,10,01,11.30
2010,04,22,10,02,11.30
2010,04,22,10,03,11.30
2010,04,22,10,04,11.30
2010,04,22,10,05,11.20
2010,04,22,10,06,11.10
2010,04,22,10,07,11.00
2010,04,22,10,08,10.90
2010,04,22,10,09,10.90
2010,04,22,10,10,10.90
2010,04,22,10,11,10.80
2010,04,22,10,12,10.80
2010,04,22,10,13,10.80
2010,04,22,10,14,10.90
2010,04,22,10,15,11.00
2010,04,22,10,16,11.30
2010,04,22,10,17,11.40
2010,04,22,10,18,11.50
2010,04,22,10,19,11.60
2010,04,22,10,20,11.60
2010,04,22,10,21,11.50
2010,04,22,10,22,11.40
2010,04,22,10,23,11.30
2010,04,22,10,24,11.40
2010,04,22,10,25,11.50
2010,04,22,10,26,11.60
2010,04,22,10,27,11.60
2010,04,22,10,28,11.50
2010,04,22,10,29,11.40
2010,04,22,10,30,11.40
2010,04,22,10,31,11.30
2010,04,22,10,32,11.20
2010,04,22,10,33,11.20
2010,04,22,10,34,11.20
2010,04,22,10,35,11.20
2010,04,22,10,36,11.30
2010,04,22,10,37,11.30
2010,04,22,10,38,11.40
2010,04,22,10,39,11.40
2010,04,22,10,40,11.40
2010,04,22,10,41,11.30
2010,04,22,10,42,11.20
2010,04,22,10,43,11.10
2010,04,22,10,44,10.90
2010,04,22,10,45,10.80
2010,04,22,10,46,10.80
2010,04,22,10,47,10.70
2010,04,22,10,48,10.70
2010,04,22,10,49,10.60
2010,04,22,10,50,10.50
2010,04,22,10,51,10.50
2010,04,22,10,52,10.50
2010,04,22,10,53,10.60
2010,04,22,10,54,10.60
2010,04,22,10,55,10.60
2010,04,22,10,56,10.60
2010,04,22,10,57,10.60
2010,04,22,10,58,10.60
2010,04,22,10,59,10.60
2010,04,22,11,00,10.60
2010,04,22,11,01,10.60
2010,04,22,11,02,10.70
2010,04,22,11,03,10.70
2010,04,22,11,04,10.70
2010,04,22,11,05,10.70
2010,04,22,11,06,10.70
2010,04,22,11,07,10.70
2010,04,22,11,08,10.80
2010,04,22,11,09,10.80
2010,04,22,11,10,10.80
2010,04,22,11,11,10.80
2010,04,22,11,12,10.80
2010,04,22,11,13,10.90
2010,04,22,11,14,10.90
2010,04,22,11,15,10.90
2010,04,22,11,16,11.00
2010,04,22,11,17,11.00
2010,04,22,11,18,11.00
2010,04,22,11,19,10.90
2010,04,22,11,20,11.00
2010,04,22,11,21,11.00
2010,04,22,11,22,10.90
2010,04,22,11,23,10.90
2010,04,22,11,24,10.90
2010,04,22,11,25,10.90
2010,04,22,11,26,10.80
2010,04,22,11,27,10.80
2010,04,22,11,28,10.80
2010,04,22,11,29,10.80
2010,04,22,11,30,10.80
2010,04,22,11,31,10.70
2010,04,22,11,32,10.70
2010,04,22,11,33,10.70
2010,04,22,11,34,10.70
2010,04,22,11,35,10.70
2010,04,22,11,36,10.70
2010,04,22,11,37,10.70
2010,04,22,11,38,10.70
2010,04,22,11,39,10.70
2010,04,22,11,40,10.70
2010,04,22,11,41,10.70
2010,04,22,11,42,10.70
2010,04,22,11,43,10.70
2010,04,22,11,44,10.70
2010,04,22,11,45,10.80
2010,04,22,11,46,10.80
2010,04,22,11,47,10.80
2010,04,22,11,48,10.80
2010,04,22,11,49,10.70
2010,04,22,11,50,10.70
2010,04,22,11,51,10.70
2010,04,22,11,52,10.70
2010,04,22,11,53,10.70
2010,04,22,11,54,10.70
2010,04,22,11,55,10.70
2010,04,22,11,56,10.70
2010,04,22,11,57,10.70
2010,04,22,11,58,10.70
2010,04,22,11,59,10.70
2010,04,22,12,00,10.70
2010,04,22,12,01,10.60
2010,04,22,12,02,10.60
2010,04,22,12,03,10.60
2010,04,22,12,04,10.60
2010,04,22,12,05,10.70
2010,04,22,12,06,10.70
2010,04,22,12,07,10.70
2010,04,22,12,08,10.70
2010,04,22,12,09,10.70
2010,04,22,12,10,10.70
2010,04,22,12,11,10.80
2010,04,22,12,12,10.80
2010,04,22,12,13,10.80
2010,04,22,12,14,10.80
2010,04,22,12,15,10.80
2010,04,22,12,16,10.70
2010,04,22,12,17,10.70
2010,04,22,12,18,10.70
2010,04,22,12,19,10.70
2010,04,22,12,20,10.70
2010,04,22,12,21,10.70
2010,04,22,12,22,10.70
2010,04,22,12,23,10.80
2010,04,22,12,24,10.80
2010,04,22,12,25,10.80
2010,04,22,12,26,10.80
2010,04,22,12,27,10.80
2010,04,22,12,28,10.80
2010,04,22,12,29,10.80
2010,04,22,12,30,10.80
2010,04,22,12,31,10.80
2010,04,22,12,32,10.90
2010,04,22,12,33,10.90
2010,04,22,12,34,10.90
2010,04,22,12,35,11.00
2010,04,22,12,36,11.00
2010,04,22,12,37,10.90
2010,04,22,12,38,10.90
2010,04,22,12,39,10.90
2010,04,22,12,40,10.90
2010,04,22,12,41,10.80
2010,04,22,12,42,10.80
2010,04,22,12,43,10.90
2010,04,22,12,44,11.00
2010,04,22,12,45,11.00
2010,04,22,12,46,11.10
2010,04,22,12,47,11.20
2010,04,22,12,48,11.30
2010,04,22,12,49,11.30
2010,04,22,12,50,11.30
2010,04,22,12,51,11.30
2010,04,22,12,52,11.20
2010,04,22,12,53,11.30
2010,04,22,12,54,11.20
2010,04,22,12,55,11.20
2010,04,22,12,56,11.30
2010,04,22,12,57,11.30
2010,04,22,12,58,11.30
2010,04,22,12,59,11.30
2010,04,22,13,00,11.30
2010,04,22,13,01,11.40
2010,04,22,13,02,11.50
2010,04,22,13,03,11.60
2010,04,22,13,04,11.70
2010,04,22,13,05,11.80
2010,04,22,13,06,11.70
2010,04,22,13,07,11.70
2010,04,22,13,08,11.70
2010,04,22,13,09,11.60
2010,04,22,13,10,11.60
2010,04,22,13,11,11.60
2010,04,22,13,12,11.70
2010,04,22,13,13,11.70
2010,04,22,13,14,11.60
2010,04,22,13,15,11.60
2010,04,22,13,16,11.60
2010,04,22,13,17,11.50
2010,04,22,13,18,11.50
2010,04,22,13,19,11.40
2010,04,22,13,20,11.50
2010,04,22,13,21,11.50
2010,04,22,13,22,11.50
2010,04,22,13,23,11.50
2010,04,22,13,24,11.50
2010,04,22,13,25,11.50
2010,04,22,13,26,11.50
2010,04,22,13,27,11.60
2010,04,22,13,28,11.60
2010,04,22,13,29,11.60
2010,04,22,13,30,11.70
2010,04,22,13,31,11.80
2010,04,22,13,32,11.70
2010,04,22,13,33,11.60
2010,04,22,13,34,11.60
2010,04,22,13,35,11.70
2010,04,22,13,36,11.70
2010,04,22,13,37,11.70
2010,04,22,13,38,11.80
2010,04,22,13,39,11.90
2010,04,22,13,40,11.80
2010,04,22,13,41,11.70
2010,04,22,13,42,11.70
2010,04,22,13,43,11.70
2010,04,22,13,44,11.70
2010,04,22,13,45,11.70
2010,04,22,13,46,11.80
2010,04,22,13,47,11.90
2010,04,22,13,48,11.90
2010,04,22,13,49,11.90
2010,04,22,13,50,11.90
2010,04,22,13,51,11.90
2010,04,22,13,52,11.90
2010,04,22,13,53,11.90
2010,04,22,13,54,12.00
2010,04,22,13,55,12.10
2010,04,22,13,56,12.10
2010,04,22,13,57,12.10
2010,04,22,13,58,12.10
2010,04,22,13,59,12.10
2010,04,22,14,00,12.20
2010,04,22,14,01,12.20
2010,04,22,14,02,12.10
2010,04,22,14,03,12.10
2010,04,22,14,04,12.20
2010,04,22,14,05,12.40
2010,04,22,14,06,12.40
2010,04,22,14,07,12.50
2010,04,22,14,08,12.60
2010,04,22,14,09,12.50
2010,04,22,14,10,12.40
2010,04,22,14,11,12.40
2010,04,22,14,12,12.50
2010,04,22,14,13,12.60
2010,04,22,14,14,12.70
2010,04,22,14,15,12.80
2010,04,22,14,16,12.90
2010,04,22,14,17,13.00
2010,04,22,14,18,13.00
2010,04,22,14,19,12.90
2010,04,22,14,20,12.80
2010,04,22,14,21,12.80
2010,04,22,14,22,12.90
2010,04,22,14,23,13.00
2010,04,22,14,24,13.10
2010,04,22,14,25,13.20
2010,04,22,14,26,13.20
2010,04,22,14,27,13.30
2010,04,22,14,28,13.40
2010,04,22,14,29,13.40
2010,04,22,14,30,13.50
2010,04,22,14,31,13.50
2010,04,22,14,32,13.40
2010,04,22,14,33,13.30
2010,04,22,14,34,13.30
2010,04,22,14,35,13.30
2010,04,22,14,36,13.20
2010,04,22,14,37,13.20
2010,04,22,14,38,13.20
2010,04,22,14,39,13.20
2010,04,22,14,40,13.30
2010,04,22,14,41,13.30
2010,04,22,14,42,13.30
2010,04,22,14,43,13.30
2010,04,22,14,44,13.40
2010,04,22,14,45,13.50
2010,04,22,14,46,13.60
2010,04,22,14,47,13.70
2010,04,22,14,48,13.70
2010,04,22,14,49,13.70
2010,04,22,14,50,13.80
2010,04,22,14,51,13.80
2010,04,22,14,52,13.70
2010,04,22,14,53,13.70
2010,04,22,14,54,13.70
2010,04,22,14,55,13.70
2010,04,22,14,56,13.70
2010,04,22,14,57,13.70
2010,04,22,14,58,13.70
2010,04,22,14,59,13.70
2010,04,22,15,00,13.70
2010,04,22,15,01,13.60
2010,04,22,15,02,13.60
2010,04,22,15,03,13.60
2010,04,22,15,04,13.60
2010,04,22,15,05,13.60
2010,04,22,15,06,13.60
2010,04,22,15,07,13.60
2010,04,22,15,08,13.50
2010,04,22,15,09,13.40
2010,04,22,15,10,13.40
2010,04,22,15,11,13.40
2010,04,22,15,12,13.40
2010,04,22,15,13,13.40
2010,04,22,15,14,13.30
2010,04,22,15,15,13.30
2010,04,22,15,16,13.30
2010,04,22,15,17,13.30
2010,04,22,15,18,13.30
2010,04,22,15,19,13.30
2010,04,22,15,20,13.30
2010,04,22,15,21,13.30
2010,04,22,15,22,13.30
2010,04,22,15,23,13.20
2010,04,22,15,24,13.20
2010,04,22,15,25,13.10
2010,04,22,15,26,13.20
2010,04,22,15,27,13.20
2010,04,22,15,28,13.20
2010,04,22,15,29,13.20
2010,04,22,15,30,13.30
2010,04,22,15,31,13.40
2010,04,22,15,32,13.40
2010,04,22,15,33,13.30
2010,04,22,15,34,13.30
2010,04,22,15,35,13.30
2010,04,22,15,36,13.40
2010,04,22,15,37,13.40
2010,04,22,15,38,13.50
2010,04,22,15,39,13.50
2010,04,22,15,40,13.40
2010,04,22,15,41,13.40
2010,04,22,15,42,13.40
2010,04,22,15,43,13.30
2010,04,22,15,44,13.20
2010,04,22,15,45,13.20
2010,04,22,15,46,13.20
2010,04,22,15,47,13.20
2010,04,22,15,48,13.20
2010,04,22,15,49,13.20
2010,04,22,15,50,13.20
2010,04,22,15,51,13.30
2010,04,22,15,52,13.30
2010,04,22,15,53,13.30
2010,04,22,15,54,13.40
2010,04,22,15,55,13.50
2010,04,22,15,56,13.40
2010,04,22,15,57,13.40
2010,04,22,15,58,13.40
2010,04,22,15,59,13.50
2010,04,22,16,00,13.60
2010,04,22,16,01,13.60
2010,04,22,16,02,13.60
2010,04,22,16,03,13.50
2010,04,22,16,04,13.40
2010,04,22,16,05,13.30
2010,04,22,16,06,13.20
2010,04,22,16,07,13.10
2010,04,22,16,08,13.10
2010,04,22,16,09,13.10
2010,04,22,16,10,13.00
2010,04,22,16,11,12.90
2010,04,22,16,12,12.90
2010,04,22,16,13,12.90
2010,04,22,16,14,12.80
2010,04,22,16,15,12.80
2010,04,22,16,16,12.80
2010,04,22,16,17,12.80
2010,04,22,16,18,12.80
2010,04,22,16,19,12.80
2010,04,22,16,20,12.80
2010,04,22,16,21,12.80
2010,04,22,16,22,12.90
2010,04,22,16,23,12.90
2010,04,22,16,24,13.00
2010,04,22,16,25,13.10
2010,04,22,16,26,13.20
2010,04,22,16,27,13.20
2010,04,22,16,28,13.30
2010,04,22,16,29,13.30
2010,04,22,16,30,13.20
2010,04,22,16,31,13.20
2010,04,22,16,32,13.20
2010,04,22,16,33,13.20
2010,04,22,16,34,13.20
2010,04,22,16,35,13.20
2010,04,22,16,36,13.20
2010,04,22,16,37,13.10
2010,04,22,16,38,13.10
2010,04,22,16,39,13.10
2010,04,22,16,40,13.10
2010,04,22,16,41,13.20
2010,04,22,16,42,13.30
2010,04,22,16,43,13.30
2010,04,22,16,44,13.20
2010,04,22,16,45,13.20
2010,04,22,16,46,13.20
2010,04,22,16,47,13.20
2010,04,22,16,48,13.20
2010,04,22,16,49,13.20
2010,04,22,16,50,13.30
2010,04,22,16,51,13.20
2010,04,22,16,52,13.20
2010,04,22,16,53,13.20
2010,04,22,16,54,13.20
2010,04,22,16,55,13.30
2010,04,22,16,56,13.30
2010,04,22,16,57,13.30
2010,04,22,16,58,13.40
2010,04,22,16,59,13.40
2010,04,22,17,00,13.40
2010,04,22,17,01,13.40
2010,04,22,17,02,13.30
2010,04,22,17,03,13.30
2010,04,22,17,04,13.20
2010,04,22,17,05,13.20
2010,04,22,17,06,13.20
2010,04,22,17,07,13.20
2010,04,22,17,08,13.20
2010,04,22,17,09,13.20
2010,04,22,17,10,13.20
2010,04,22,17,11,13.30
2010,04,22,17,12,13.30
2010,04,22,17,13,13.30
2010,04,22,17,14,13.30
2010,04,22,17,15,13.30
2010,04,22,17,16,13.30
2010,04,22,17,17,13.30
2010,04,22,17,18,13.30
2010,04,22,17,19,13.30
2010,04,22,17,20,13.30
2010,04,22,17,21,13.30
2010,04,22,17,22,13.30
2010,04,22,17,23,13.30
2010,04,22,17,24,13.20
2010,04,22,17,25,13.20
2010,04,22,17,26,13.20
2010,04,22,17,27,13.10
2010,04,22,17,28,13.10
2010,04,22,17,29,13.10
2010,04,22,17,30,13.20
2010,04,22,17,31,13.20
2010,04,22,17,32,13.20
2010,04,22,17,33,13.20
2010,04,22,17,34,13.20
2010,04,22,17,35,13.20
2010,04,22,17,36,13.20
2010,04,22,17,37,13.30
2010,04,22,17,38,13.30
2010,04,22,17,39,13.30
2010,04,22,17,40,13.30
2010,04,22,17,41,13.30
2010,04,22,17,42,13.20